Powrót do katalogu

NUVIEW ALPHA

AktywnyNaukaGEO
NORAD 62455·PAYLOAD·🇬🇧 United Kingdom

Wystrzelony Dec 29, 2024 z Cape Canaveral Space Force Station

Loading…

TLE

ŚwieżeSource: Space-Track

Epoka: Sep 14, 2026, 13:24 UTC

1 62455U 24252B   26257.55867749 -.00000223  00000-0  00000-0 0  9998
2 62455   0.0517   8.6238 0000157 128.4526 334.4831  1.00272091  4726

Śledź NUVIEW ALPHA w czasie rzeczywistym z AllMySat

Download on the App Store